Regional Weather Roundup
Issued by NWS

Home | Current Version | Previous Version | Graphics & Text | Print | Product List | Glossary On
Versions: 1 2 3 4 5 6 7 8 9 10 11 12 13 14 15 16 17 18 19 20 21 22 23 24 25 26 27 28 29 30 31 32 33 34 35 36 37 38 39 40 41 42 43 44 45 46 47 48 49 50
553
ASUS45 KBOU 240907
RWRCO

WEATHER ROUNDUP FOR COLORADO
NATIONAL WEATHER SERVICE DENVER/BOULDER CO
300 AM MDT SUN JUL 24 2016

NOTE: "FAIR" INDICATES FEW OR NO CLOUDS BELOW 12000 FEET WITH NO
SIGNIFICANT WEATHER AND/OR OBSTRUCTIONS TO VISIBILITY.

COZ001>005-013-030-031-241000-
...NORTHWEST COLORADO...

CITY           SKY/WX    TMP DP  RH WIND       PRES   REMARKS
CRAIG          FAIR      70  35  27 VRB5      30.21S
HAYDEN         FAIR      66  37  34 NE5       30.23S
MEEKER         FAIR      63  44  50 E5        30.21F
MOUNT WERNER   NOT AVBL
STEAMBOAT SPGS MOCLDY    62  42  46 E20       30.26F
WALDEN         CLOUDY    54  39  58 W5        30.41R
$$

COZ006>008-011-241000-
...WEST CENTRAL VALLEYS...

CITY           SKY/WX    TMP DP  RH WIND       PRES   REMARKS
GRAND JUNCTION FAIR      76  42  29 W7        30.07R
MONTROSE       FAIR      63  45  51 S7        30.18S
EAGLE          FAIR      61  45  55 E9        30.30F
RIFLE          FAIR      66  42  41 E7        30.15F
DELTA          FAIR      69  47  44 NE7       30.13R
NUCLA          NOT AVBL
$$

COZ017>023-064>068-241000-
...SOUTHWEST COLORADO...

CITY           SKY/WX    TMP DP  RH WIND       PRES   REMARKS
DURANGO        FAIR      62  44  51 CALM      30.23R
CORTEZ         FAIR      60  46  59 S7        30.20R
PAGOSA SPRINGS FAIR      62  37  40 N5        30.35R
TELLURIDE      FAIR      57  37  46 SE8       30.44F
WOLF CREEK PAS FAIR      50  34  53 SW17      30.69F
$$

COZ009-010-012-014-032>034-037-058>063-241000-
...CENTRAL COLORADO...

CITY           SKY/WX    TMP DP  RH WIND       PRES   REMARKS
ASPEN          FAIR      55  48  77 SW9       30.39S
BUENA VISTA    FAIR      51  41  70 W6        30.40S
COPPER MTN     CLOUDY    54  34  47 W12G17    30.69R
BERTHOUD PASS  CLOUDY    46  34  61 N14       30.71S
COTTONWOOD PAS FAIR      61  43  51 SE3       30.52F
GUNNISON       FAIR      52  39  62 CALM      30.37F
KREMMLING      MOCLDY    55  46  71 CALM      30.37R
LEADVILLE      CLOUDY    47  37  68 NW8       30.54R
MONARCH PASS   FAIR      46  41  81 NE18      30.76F
SALIDA         FAIR      58  47  66 W3        30.43S
SUNLIGHT       FAIR      55  34  44 NE6       30.60F
WILKERSON PASS FAIR      50  39  66 S7G18     30.64F
$$

COZ069>075-241000-
...SAN LUIS VALLEY/SANGRE DE CRISTO MOUNTAINS...

CITY           SKY/WX    TMP DP  RH WIND       PRES   REMARKS
ALAMOSA        FAIR      63  48  58 E9        30.31F
LA VETA PASS   MOCLDY    54  43  66 CALM      30.53F
SAGUACHE       FAIR      59  41  51 CALM      30.35F
$$

COZ035-036-038>040-241000-
...NORTHERN COLORADO FRONT RANGE...

CITY           SKY/WX    TMP DP  RH WIND       PRES   REMARKS
DENVER INTL AP FAIR      63  52  67 S13       30.14F
DMNS CITY PARK   N/A     65  53  64 SW2       30.14F
AURORA         PTCLDY    69  50  51 S14       30.18F
FRONT RANGE AP NOT AVBL
ERIE MUNI ARPT FAIR      62  53  71 CALM      30.14R
BOULDER MUN AP FAIR      68  46  45 SW3       30.14F
CENTENNIAL     FAIR      72  47  40 S15G24    30.19S
BROOMFIELD     FAIR      68  50  52 NW10      30.17S
LONGMONT       FAIR      68  53  59 CALM      30.15S
$$

COZ041-046-047-076>085-087-088-241000-
...PIKES PEAK/PALMER DIVIDE AND SOUTHERN FOOTHILLS...

CITY           SKY/WX    TMP DP  RH WIND       PRES   REMARKS
COLO. SPRINGS  MOCLDY    67  51  56 W3        30.26F
A. F. ACADEMY  FAIR      63  49  61 S5        30.27F
SCHRIEVER AFB  NOT AVBL
ELLICOTT       FAIR     N/A N/A N/A W5        30.23S
FALCON         NOT AVBL
FORT CARSON    FAIR      68  50  52 SW6       30.22F
LIMON          FAIR      59  55  87 CALM      30.17R
MONUMENT HILL  FAIR      59  50  72 S12       30.31S
TRINIDAD       NOT AVBL
$$

COZ042>045-048>051-090-091-241000-
...NORTHEAST COLORADO...

CITY           SKY/WX    TMP DP  RH WIND       PRES   REMARKS
GREELEY ARPT   FAIR      61  55  82 N6        30.13F
AKRON          FAIR      69  52  54 SE9       30.09R
BURLINGTON     FAIR      73  53  49 S3        30.08F
WRAY           FAIR      72  54  53 E3        30.01F
STERLING       FAIR      63  61  94 N3        30.02F
HOLYOKE        FAIR     N/A N/A N/A W6        30.04S
FORT MORGAN    FAIR      62  53  72 W10       30.11R
$$

COZ086-089-092>099-241000-
...SOUTHEAST COLORADO...

CITY           SKY/WX    TMP DP  RH WIND       PRES   REMARKS
PUEBLO         FAIR      71  53  52 N7        30.13F
LA JUNTA       FAIR      70  62  76 W7        30.08F
LAMAR          FAIR      70  60  70 NW5       30.01R
SPRINGFIELD      N/A     70  55  59 VRB3      30.07R
$$




USA.gov is the U.S. government's official web portal to all federal, state and local government web resources and services.